Wind_Speed
47 47 48 49 50 50 49 50 51 51 51 50 50 51 51 51 51 51 51 52 52 52 53 53 53 53 53 53 54 54 54 55 54 53 53 53 54 54 54 55 55 55 55
47 47 48 48 49 49 49 50 50 51 51 51 51 52 52 51 52 53 53 53 54 54 54 54 54 54 55 55 55 55 56 56 56 55 55 55 55 55 56 56 56 56 56
45 46 47 47 48 48 49 49 50 50 51 52 52 52 52 52 52 52 52 53 54 55 56 55 55 56 56 56 56 56 56 57 57 56 56 56 56 57 57 57 57 57 58
44 44 45 46 47 48 49 49 49 49 51 52 53 54 54 54 54 54 54 54 54 55 56 56 56 57 56 56 56 56 57 57 57 57 58 57 58 58 58 58 58 59 59
43 44 45 46 47 47 49 49 49 50 51 52 54 55 55 55 56 56 56 56 55 55 56 56 57 57 57 57 57 57 57 58 58 58 58 59 58 59 59 59 60 60 60
43 44 45 45 46 46 47 48 49 49 50 51 53 54 55 56 57 57 57 57 57 57 57 58 58 57 57 57 58 58 58 58 58 58 58 59 59 60 60 61 61 61 61
41 42 42 43 44 45 45 46 47 47 48 49 50 51 52 53 54 56 57 58 58 58 58 59 59 58 58 58 58 58 58 59 59 58 58 58 58 59 60 60 61 61 61
38 39 40 41 42 42 43 44 45 46 47 47 48 49 50 50 52 53 54 56 57 57 57 58 58 58 58 59 59 58 58 58 58 58 58 58 58 58 58 59 59 58 58
38 38 39 40 41 41 42 42 43 44 45 45 46 48 49 49 50 52 53 54 55 56 56 57 57 57 58 59 59 59 58 57 58 58 58 58 57 58 57 56 57 57 56
37 38 39 40 41 41 41 42 43 43 43 44 45 46 47 48 49 50 51 52 53 54 55 56 57 57 57 57 58 57 57 56 57 57 57 56 56 56 56 55 55 55 54
37 38 38 39 39 40 41 41 42 42 43 43 43 44 45 46 46 47 49 50 51 52 53 54 56 56 57 56 56 56 56 56 56 55 55 55 55 54 54 54 54 54 53
36 37 38 39 39 39 40 40 40 42 42 42 42 43 43 44 45 47 48 49 50 51 52 53 54 55 55 55 55 55 55 55 55 54 54 54 55 54 54 54 54 54 53
36 36 37 38 38 38 38 38 39 40 41 42 42 43 43 44 45 46 47 48 48 49 50 51 52 52 53 54 54 54 54 55 54 54 54 54 54 54 54 54 54 54 53
34 35 36 36 36 36 36 37 38 39 40 42 43 43 44 44 44 45 46 47 48 49 49 49 49 50 51 52 53 53 54 54 53 53 53 53 53 53 53 54 53 53 54
35 35 35 35 36 36 36 36 37 38 39 40 41 42 43 43 43 44 45 46 47 47 47 47 47 48 49 50 51 52 52 53 53 53 53 53 53 53 53 53 53 52 52
34 34 35 35 35 35 36 36 37 37 38 39 40 40 41 41 42 42 43 43 43 44 45 45 46 46 47 48 49 49 50 51 51 52 52 52 52 51 52 52 52 52 51
33 34 34 34 34 34 35 36 37 37 37 38 38 38 39 39 40 40 41 41 42 43 43 43 44 45 45 46 47 47 48 49 50 50 51 51 50 50 50 50 51 51 50
33 33 33 34 34 35 35 36 36 36 35 36 36 37 37 37 37 37 38 38 39 40 40 41 42 42 43 44 45 45 46 47 48 49 49 49 49 49 50 50 50 50 50
32 32 32 33 33 33 34 34 34 34 34 34 35 36 37 37 37 37 37 36 37 37 37 37 38 38 39 40 41 42 43 44 45 46 47 48 48 48 49 49 49 49 49
29 30 30 31 31 31 32 32 33 33 32 33 34 35 36 36 36 36 36 35 35 34 34 35 36 36 36 37 38 39 40 41 42 43 44 45 46 46 47 47 47 47 47
28 28 28 29 29 30 30 31 31 31 32 32 33 34 34 34 33 33 33 33 33 33 33 34 34 35 35 35 36 36 37 38 40 41 42 42 43 43 44 44 45 45 45
27 27 27 28 28 29 29 30 30 31 31 31 31 31 31 31 31 31 31 31 31 31 31 32 32 32 33 33 33 34 35 36 37 38 39 39 40 41 42 42 42 42 42
26 26 27 27 28 28 29 29 30 30 31 31 31 31 31 30 30 30 30 29 29 30 30 30 30 30 30 30 30 31 32 32 33 34 35 35 36 37 38 38 39 39 39
26 26 27 27 27 28 28 29 30 30 30 30 31 31 30 30 30 30 30 30 30 30 30 30 30 29 29 29 29 30 30 30 31 31 32 32 33 33 34 35 36 36 36
26 26 26 26 27 27 28 29 29 29 29 30 30 30 30 30 30 30 30 30 30 30 29 29 29 29 29 28 28 28 28 29 29 30 30 30 30 31 31 31 32 33 33
26 26 26 26 26 26 27 27 28 28 28 29 29 29 29 29 30 30 30 29 29 28 28 28 28 28 28 28 28 28 28 28 28 29 28 28 28 28 28 28 29 29 30
Wind_Direction
261 261 261 261 260 260 260 260 259 258 258 258 258 258 259 259 260 261 261 261 261 261 262 262 262 262 262 263 264 265 265 266 266 267 267 268 269 269 268 268 267 267 266
262 262 262 261 261 260 260 260 259 258 259 259 259 259 259 259 260 260 260 261 261 261 262 262 262 262 262 263 265 265 266 267 267 267 268 268 268 268 267 267 268 267 266
264 263 262 262 261 261 261 262 260 259 259 259 259 259 259 259 260 261 261 261 261 261 261 262 262 262 263 264 265 266 267 267 267 267 268 268 268 269 268 267 267 267 266
265 264 263 262 262 263 263 263 262 260 259 260 260 259 259 260 261 261 261 261 261 262 262 262 262 263 264 265 265 266 267 267 268 267 267 268 269 269 268 267 267 268 267
265 264 264 264 264 264 264 264 264 263 262 261 261 261 261 262 262 262 261 261 261 261 262 263 264 264 265 265 266 266 267 268 268 268 268 268 268 269 269 269 268 268 268
265 264 265 265 265 266 265 265 264 264 263 262 263 263 263 263 263 262 262 262 262 262 262 263 264 264 265 265 266 266 267 268 269 269 269 269 268 269 269 270 269 268 267
266 266 266 266 266 266 266 266 265 264 264 264 264 264 265 265 264 264 263 263 263 264 264 265 265 265 265 265 265 266 268 268 269 269 269 269 269 269 270 270 270 269 268
267 267 268 267 267 267 266 266 265 265 266 266 265 265 266 265 265 264 264 264 264 264 265 265 265 265 265 265 266 266 267 267 268 269 269 269 269 270 270 270 269 269 269
269 268 268 269 269 269 268 268 267 267 267 268 268 267 267 267 266 266 265 265 265 265 265 265 265 265 265 266 266 266 267 267 268 268 268 268 269 270 270 270 269 269 269
271 270 270 270 270 269 270 269 269 268 269 270 270 270 269 268 267 266 266 266 266 266 266 266 265 265 265 266 266 266 266 267 268 269 268 268 268 269 270 270 270 270 269
272 272 272 272 271 271 272 272 271 270 271 271 272 272 270 270 269 268 269 269 269 268 267 266 266 265 265 266 266 266 266 266 267 268 268 267 267 268 269 270 270 271 270
273 272 272 272 272 272 273 273 272 272 272 272 273 273 272 271 270 270 271 271 271 270 268 267 266 266 265 265 265 265 266 266 266 266 266 267 267 268 269 270 271 271 270
274 274 274 274 273 274 274 274 274 273 272 272 273 273 273 274 273 272 271 271 271 271 269 268 267 267 266 265 265 266 266 266 266 266 266 267 267 268 269 270 270 271 270
275 275 275 275 275 275 275 276 276 276 275 274 274 274 275 275 275 274 273 272 271 272 271 270 269 268 266 265 264 265 266 266 266 266 266 266 266 267 267 269 269 270 270
276 276 275 276 276 276 276 277 277 277 278 277 277 276 276 276 276 275 275 274 273 272 271 270 270 269 267 266 265 265 265 265 265 265 265 265 266 266 267 268 269 269 270
276 276 276 276 277 277 278 278 279 280 279 279 279 278 277 277 277 277 277 276 274 274 273 272 271 271 269 268 267 266 265 264 264 264 265 265 265 266 266 267 269 269 270
277 278 278 278 278 279 279 280 280 281 281 280 280 280 280 280 279 279 279 278 276 275 274 273 272 271 269 268 268 267 265 264 264 265 265 266 266 266 267 268 268 269 270
279 279 279 279 279 280 280 281 281 282 282 282 282 281 281 281 281 281 280 279 277 277 276 275 274 273 270 269 269 268 267 266 266 266 266 266 266 267 267 268 269 269 270
281 280 279 279 280 280 280 280 281 282 282 283 283 282 283 283 283 283 282 282 280 279 278 276 275 275 273 271 270 269 269 268 268 268 268 268 267 267 268 268 269 269 270
283 282 281 281 281 281 281 281 281 282 283 284 284 285 285 285 285 285 284 283 283 281 280 278 278 277 275 274 273 272 271 270 270 270 269 269 269 268 268 268 269 269 270
285 284 283 283 283 283 283 283 283 283 285 286 287 288 287 286 286 287 286 285 284 282 281 280 279 278 277 276 274 274 274 273 272 271 271 270 269 269 268 268 269 269 270
286 285 284 284 284 285 285 285 285 285 285 286 288 289 289 288 288 288 287 286 285 285 284 283 281 280 279 278 276 276 277 276 275 274 273 271 271 270 269 269 269 268 269
286 286 286 285 286 286 286 286 286 286 285 286 287 289 289 289 288 288 288 287 287 286 285 284 283 282 281 280 279 279 278 278 277 276 276 275 274 272 271 270 269 268 268
289 289 288 288 287 287 287 287 287 287 287 286 286 287 287 287 287 288 287 287 286 286 285 284 283 283 282 281 281 281 280 280 279 279 279 277 276 275 273 271 269 269 269
292 292 291 290 290 289 289 289 288 288 287 287 287 286 286 286 287 287 287 286 286 285 285 284 283 282 281 281 282 282 281 281 281 280 280 279 278 276 275 273 272 270 269
294 294 293 293 293 293 293 292 292 290 290 290 289 289 288 287 287 287 286 286 286 285 285 284 283 282 280 280 281 283 283 282 282 282 282 282 281 279 277 276 274 272 270
Height
5583 5584 5584 5584 5584 5585 5586 5587 5589 5590 5592 5594 5596 5598 5600 5601 5603 5605 5607 5609 5612 5614 5615 5617 5619 5621 5623 5624 5626 5627 5629 5630 5633 5635 5635 5636 5636 5636 5637 5637 5638 5639 5640
5571 5571 5571 5571 5571 5572 5573 5574 5575 5577 5579 5581 5582 5584 5586 5588 5590 5592 5594 5596 5598 5599 5601 5602 5604 5606 5608 5610 5611 5612 5614 5615 5617 5619 5620 5620 5621 5621 5622 5622 5623 5623 5624
5558 5558 5559 5559 5559 5560 5560 5561 5562 5564 5565 5567 5569 5570 5572 5574 5575 5577 5579 5581 5583 5585 5586 5587 5589 5591 5593 5594 5596 5597 5598 5599 5600 5602 5604 5604 5605 5605 5605 5606 5606 5607 5608
5546 5546 5546 5547 5547 5547 5548 5548 5549 5549 5551 5553 5555 5556 5558 5559 5561 5562 5564 5566 5568 5570 5571 5572 5574 5575 5577 5578 5580 5581 5582 5583 5584 5585 5587 5588 5588 5588 5588 5589 5590 5590 5591
5534 5534 5534 5534 5534 5534 5535 5535 5535 5536 5537 5538 5540 5541 5543 5544 5546 5547 5549 5551 5552 5554 5555 5557 5558 5560 5561 5562 5564 5565 5565 5566 5567 5568 5569 5570 5571 5571 5571 5572 5572 5573 5573
5522 5522 5522 5522 5522 5521 5522 5522 5522 5523 5523 5524 5525 5527 5528 5529 5530 5531 5533 5535 5536 5538 5539 5541 5542 5544 5545 5546 5547 5548 5549 5550 5551 5551 5552 5553 5554 5554 5554 5554 5554 5555 5557
5510 5510 5510 5509 5509 5509 5509 5509 5509 5510 5510 5511 5511 5512 5513 5513 5514 5515 5516 5518 5520 5522 5523 5524 5526 5527 5528 5529 5530 5531 5532 5533 5534 5534 5535 5536 5536 5536 5536 5536 5535 5536 5538
5499 5499 5498 5498 5497 5497 5497 5497 5497 5497 5497 5497 5497 5498 5498 5499 5499 5499 5500 5502 5503 5505 5506 5508 5509 5510 5511 5512 5513 5515 5515 5516 5516 5517 5518 5519 5518 5518 5517 5518 5518 5518 5519
5488 5488 5487 5486 5486 5485 5485 5485 5484 5484 5484 5484 5484 5484 5484 5484 5484 5484 5484 5486 5487 5489 5490 5491 5492 5493 5495 5495 5497 5498 5499 5499 5499 5499 5500 5500 5500 5500 5500 5500 5500 5500 5502
5477 5476 5475 5475 5474 5473 5473 5472 5472 5472 5471 5471 5471 5470 5470 5470 5469 5469 5469 5470 5472 5473 5473 5474 5475 5476 5477 5478 5479 5481 5482 5482 5482 5482 5482 5483 5482 5482 5482 5483 5483 5484 5484
5466 5465 5464 5463 5462 5461 5461 5460 5460 5459 5459 5459 5458 5457 5456 5456 5455 5455 5455 5455 5455 5456 5456 5457 5458 5459 5460 5461 5462 5464 5465 5465 5465 5466 5466 5466 5466 5466 5467 5467 5467 5467 5468
5454 5454 5453 5452 5451 5450 5449 5448 5448 5447 5446 5446 5445 5444 5443 5442 5442 5441 5441 5440 5440 5440 5440 5441 5441 5442 5443 5444 5445 5446 5447 5448 5448 5449 5450 5450 5451 5451 5451 5451 5451 5451 5451
5443 5442 5441 5440 5439 5438 5438 5437 5436 5435 5434 5433 5433 5432 5431 5430 5429 5428 5427 5425 5424 5424 5424 5424 5425 5425 5426 5427 5428 5429 5430 5431 5432 5433 5434 5435 5435 5435 5435 5435 5435 5435 5436
5432 5431 5430 5429 5428 5427 5426 5425 5424 5423 5422 5421 5420 5419 5418 5416 5415 5414 5412 5411 5410 5410 5409 5409 5409 5409 5410 5411 5412 5412 5413 5414 5415 5417 5418 5419 5419 5419 5420 5420 5420 5420 5420
5422 5421 5420 5419 5417 5416 5415 5414 5413 5411 5410 5409 5408 5406 5405 5403 5401 5400 5398 5397 5396 5395 5394 5394 5394 5394 5394 5395 5395 5396 5397 5398 5399 5400 5402 5402 5403 5403 5404 5404 5404 5404 5404
5411 5410 5409 5408 5407 5406 5405 5403 5401 5400 5398 5396 5395 5393 5392 5390 5388 5387 5385 5384 5382 5381 5380 5380 5380 5379 5379 5379 5380 5381 5381 5382 5383 5384 5386 5387 5387 5388 5388 5388 5388 5388 5389
5400 5399 5398 5397 5396 5395 5394 5393 5391 5389 5387 5385 5383 5381 5380 5378 5376 5374 5372 5371 5369 5368 5367 5366 5365 5365 5364 5364 5364 5365 5366 5366 5367 5368 5370 5371 5372 5372 5372 5373 5373 5373 5373
5390 5389 5388 5387 5385 5384 5383 5381 5380 5378 5377 5374 5372 5370 5368 5366 5364 5362 5360 5359 5357 5355 5354 5352 5352 5351 5350 5350 5350 5350 5351 5351 5352 5353 5354 5355 5356 5356 5357 5357 5357 5357 5358
5379 5378 5377 5376 5375 5373 5372 5371 5369 5367 5365 5363 5361 5359 5357 5355 5353 5351 5348 5347 5345 5343 5341 5340 5339 5338 5337 5337 5336 5336 5337 5337 5337 5338 5339 5340 5340 5341 5341 5342 5342 5342 5342
5370 5368 5367 5366 5364 5363 5362 5360 5358 5357 5355 5352 5350 5348 5346 5344 5342 5340 5337 5335 5333 5332 5330 5328 5327 5326 5325 5324 5324 5324 5324 5324 5324 5324 5324 5325 5325 5326 5326 5327 5327 5327 5328
5361 5359 5358 5356 5355 5353 5352 5350 5348 5346 5344 5342 5340 5337 5335 5333 5331 5329 5327 5324 5323 5321 5319 5318 5316 5315 5314 5313 5312 5312 5312 5311 5311 5311 5311 5311 5311 5311 5312 5312 5312 5313 5313
5352 5350 5349 5347 5346 5344 5342 5340 5338 5336 5334 5332 5330 5327 5325 5323 5321 5319 5317 5314 5312 5311 5309 5307 5306 5304 5303 5302 5301 5301 5300 5300 5299 5298 5298 5298 5298 5298 5298 5298 5298 5298 5298
5344 5342 5340 5338 5337 5335 5333 5331 5329 5327 5324 5322 5320 5318 5315 5313 5311 5309 5307 5305 5303 5301 5299 5297 5296 5294 5293 5292 5291 5290 5290 5289 5288 5287 5286 5286 5285 5285 5284 5284 5284 5285 5285
5335 5333 5332 5330 5328 5326 5323 5321 5319 5317 5315 5312 5310 5308 5306 5304 5302 5300 5298 5296 5293 5291 5289 5288 5286 5285 5284 5282 5281 5280 5279 5278 5277 5276 5275 5274 5274 5273 5273 5272 5272 5273 5273
5327 5325 5323 5321 5319 5317 5314 5312 5310 5307 5305 5303 5301 5298 5296 5294 5292 5290 5288 5286 5284 5282 5280 5278 5276 5275 5274 5273 5272 5271 5270 5269 5267 5266 5265 5264 5264 5263 5262 5262 5261 5261 5262
5319 5317 5315 5312 5310 5308 5305 5303 5300 5298 5296 5293 5291 5289 5287 5285 5283 5280 5278 5276 5274 5272 5270 5269 5267 5266 5265 5264 5263 5262 5261 5259 5258 5257 5256 5255 5254 5253 5252 5252 5251 5251 5251